Flag for U.S.A. Weather past 2 weeks in San Antonio, Texas, U.S.A.

Now
81 °F

Sunny.


Feels Like: 81 °F
Forecast: 54 / 82 °F
Wind: 15 mph from South

Location: San Antonio International Airport

Current Time: Mar 29, 2015 at 4:04:09 PM

Latest Report: Mar 29, 2015 at 2:51 PM


Visibility: 10 mi

Pressure: 30.03 "Hg

Humidity: 45%

Dew point: 58 °F

Location of San AntonioLocation

Historic Weather in San Antonio — Graph

°F

San Antonio temperature yesterday

Maximum temperature yesterday: 82 °F (at 3:51 PM)
Minimum temperature yesterday: 51 °F (at 4:51 AM)
Average temperature yesterday: 68 °F

Past Weeks' High & Low Weather Summary

 TemperatureHumidityPressure
High82 °F (Mar 24, 3:51 PM)97% (Mar 16, 11:51 PM)30.26 "Hg (Mar 16, 11:51 PM)
Low45 °F (Mar 27, 5:51 AM)19% (Mar 27, 4:51 PM)29.83 "Hg (Mar 25, 4:51 PM)
Average66 °F72%30.04 "Hg
* Reported Mar 14 2:51 PM — Mar 29 2:51 PM, San Antonio, Weather by CustomWeather, © 2015

Note: Actual official high and low records may vary slightly from our data, if they occured in-between our weather recording intervals... More about our weather records

Advertising

San Antonio weather history for previous 24 hours

 ConditionsComfort  
Time TempWeatherWind HumidityBarometerVisibility
2:51 PM
Sun, Mar 29
81 °FSunny.15 mph45%30.03 "Hg10 mi
1:51 PM80 °FSunny.14 mph45%30.06 "Hg10 mi
12:51 PM76 °FSunny.13 mph52%30.08 "Hg10 mi
11:51 AM73 °FSunny.10 mph62%30.09 "Hg10 mi
10:51 AM68 °FPassing clouds.14 mph70%30.10 "Hg10 mi
9:51 AM64 °FScattered clouds.10 mph81%30.09 "Hg10 mi
9:03 AM61 °FPartly sunny.5 mph90%30.12 "Hg7 mi
8:51 AM60 °FPartly sunny.7 mph90%30.08 "Hg7 mi
7:51 AM57 °FPassing clouds.6 mph93%30.06 "Hg9 mi
6:51 AM57 °FClear.5 mph90%30.04 "Hg10 mi
5:51 AM56 °FClear.6 mph87%30.02 "Hg10 mi
4:51 AM58 °FClear.6 mph84%30.02 "Hg10 mi
3:51 AM60 °FClear.8 mph78%30.03 "Hg10 mi
2:51 AM62 °FClear.9 mph70%30.04 "Hg10 mi
1:51 AM63 °FClear.10 mph68%30.05 "Hg10 mi
12:51 AM66 °FClear.14 mph61%30.05 "Hg10 mi
11:51 PM
Sat, Mar 28
66 °FClear.10 mph65%30.05 "Hg10 mi
10:51 PM68 °FClear.10 mph61%30.05 "Hg10 mi
9:51 PM71 °FClear.13 mph41%30.03 "Hg10 mi
8:51 PM71 °FClear.9 mph41%30.01 "Hg10 mi
7:51 PM74 °FSunny.12 mph36%30.00 "Hg10 mi
6:51 PM80 °FSunny.13 mph25%30.00 "Hg10 mi
5:51 PM82 °FSunny.12 mph23%29.99 "Hg10 mi
4:51 PM82 °FSunny.13 mph23%30.00 "Hg10 mi
Weather by CustomWeather, © 2015

See weather overviewHow to use our weather pages